contact:dominique.lefevre@mio.osupytheas.fr, maurice.libes@osupytheas.fr, didier.mallarino@osupytheas.fr
Project:EMSO http://www.emso-fr.org/EMSO-France
Depth: 2436.0 m
Title:EMSO Ligure Ouest : Data MII capteur MICROCAT
DateTime_Computer,Latitude,Longitude,Temperature,Conductivity,Pressure,DateTime_Instrument
DateTime_Computer,Latitude,Longitude,degC,S m-1,dbar,DateTime_Instrument
2020-04-01T00:02:49Z,42.805,6.029,13.2967,4.59971,2470.133,2020-4-01T02:03:27Z
2020-04-01T00:05:52Z,42.805,6.029,13.2966,4.59971,2470.133,2020-4-01T02:06:30Z
2020-04-01T00:08:55Z,42.805,6.029,13.2968,4.59971,2470.133,2020-4-01T02:09:33Z
2020-04-01T00:11:58Z,42.805,6.029,13.2966,4.59971,2470.156,2020-4-01T02:12:37Z
2020-04-01T00:15:01Z,42.805,6.029,13.2968,4.59971,2470.147,2020-4-01T02:15:40Z
2020-04-01T00:18:05Z,42.805,6.029,13.2967,4.59971,2470.11,2020-4-01T02:18:43Z
2020-04-01T00:21:08Z,42.805,6.029,13.2966,4.59971,2470.156,2020-4-01T02:21:46Z
2020-04-01T00:24:11Z,42.805,6.029,13.2973,4.59972,2470.133,2020-4-01T02:24:50Z
2020-04-01T00:27:15Z,42.805,6.029,13.2967,4.59971,2470.133,2020-4-01T02:27:53Z
2020-04-01T00:30:18Z,42.805,6.029,13.2969,4.59970,2470.147,2020-4-01T02:30:56Z
2020-04-01T00:33:21Z,42.805,6.029,13.2964,4.59971,2470.1,2020-4-01T02:34:00Z
2020-04-01T00:36:24Z,42.805,6.029,13.2969,4.59972,2470.133,2020-4-01T02:37:03Z
2020-04-01T00:39:28Z,42.805,6.029,13.2968,4.59971,2470.147,2020-4-01T02:40:06Z
2020-04-01T00:42:31Z,42.805,6.029,13.2971,4.59972,2470.11,2020-4-01T02:43:10Z
2020-04-01T00:45:34Z,42.805,6.029,13.2969,4.59972,2470.133,2020-4-01T02:46:13Z
2020-04-01T00:48:37Z,42.805,6.029,13.2966,4.59971,2470.133,2020-4-01T02:49:16Z
2020-04-01T00:51:41Z,42.805,6.029,13.2969,4.59971,2470.147,2020-4-01T02:52:19Z
2020-04-01T00:54:44Z,42.805,6.029,13.2971,4.59973,2470.133,2020-4-01T02:55:22Z
2020-04-01T00:57:47Z,42.805,6.029,13.2967,4.59973,2470.133,2020-4-01T02:58:26Z
2020-04-01T01:00:50Z,42.805,6.029,13.2969,4.59971,2470.171,2020-4-01T03:01:29Z
2020-04-01T01:03:54Z,42.805,6.029,13.2967,4.59973,2470.133,2020-4-01T03:04:32Z
2020-04-01T01:06:57Z,42.805,6.029,13.2964,4.59973,2470.133,2020-4-01T03:07:35Z
2020-04-01T01:10:00Z,42.805,6.029,13.2968,4.59972,2470.156,2020-4-01T03:10:39Z
2020-04-01T01:13:03Z,42.805,6.029,13.2968,4.59973,2470.156,2020-4-01T03:13:42Z
2020-04-01T01:16:06Z,42.805,6.029,13.2971,4.59971,2470.133,2020-4-01T03:16:45Z
2020-04-01T01:19:10Z,42.805,6.029,13.2967,4.59973,2470.147,2020-4-01T03:19:48Z
2020-04-01T01:22:13Z,42.805,6.029,13.2968,4.59972,2470.156,2020-4-01T03:22:51Z
2020-04-01T01:25:16Z,42.805,6.029,13.2968,4.59971,2470.147,2020-4-01T03:25:55Z
2020-04-01T01:28:20Z,42.805,6.029,13.2967,4.59972,2470.171,2020-4-01T03:28:58Z
2020-04-01T01:31:23Z,42.805,6.029,13.2965,4.59972,2470.156,2020-4-01T03:32:01Z
2020-04-01T01:34:26Z,42.805,6.029,13.2964,4.59972,2470.18,2020-4-01T03:35:05Z
2020-04-01T01:37:29Z,42.805,6.029,13.2974,4.59971,2470.147,2020-4-01T03:38:08Z
2020-04-01T01:40:32Z,42.805,6.029,13.2970,4.59973,2470.147,2020-4-01T03:41:11Z
2020-04-01T01:43:36Z,42.805,6.029,13.2964,4.59974,2470.156,2020-4-01T03:44:14Z
2020-04-01T01:46:39Z,42.805,6.029,13.2964,4.59973,2470.133,2020-4-01T03:47:17Z
2020-04-01T01:49:42Z,42.805,6.029,13.2969,4.59974,2470.171,2020-4-01T03:50:21Z
2020-04-01T01:52:46Z,42.805,6.029,13.2968,4.59975,2470.133,2020-4-01T03:53:24Z
2020-04-01T01:55:49Z,42.805,6.029,13.2968,4.59973,2470.171,2020-4-01T03:56:27Z
2020-04-01T01:58:52Z,42.805,6.029,13.2968,4.59975,2470.18,2020-4-01T03:59:30Z
2020-04-01T02:01:55Z,42.805,6.029,13.2966,4.59973,2470.18,2020-4-01T04:02:34Z
2020-04-01T02:04:58Z,42.805,6.029,13.2966,4.59972,2470.11,2020-4-01T04:05:37Z
2020-04-01T02:08:02Z,42.805,6.029,13.2967,4.59973,2470.147,2020-4-01T04:08:40Z
2020-04-01T02:11:05Z,42.805,6.029,13.2965,4.59973,2470.147,2020-4-01T04:11:43Z
2020-04-01T02:14:08Z,42.805,6.029,13.2967,4.59973,2470.156,2020-4-01T04:14:47Z
2020-04-01T02:17:12Z,42.805,6.029,13.2969,4.59973,2470.124,2020-4-01T04:17:50Z
2020-04-01T02:20:15Z,42.805,6.029,13.2967,4.59975,2470.147,2020-4-01T04:20:53Z
2020-04-01T02:23:18Z,42.805,6.029,13.2968,4.59973,2470.124,2020-4-01T04:23:56Z
2020-04-01T02:26:21Z,42.805,6.029,13.2970,4.59974,2470.133,2020-4-01T04:27:00Z
2020-04-01T02:29:25Z,42.805,6.029,13.2970,4.59973,2470.11,2020-4-01T04:30:03Z
2020-04-01T02:32:28Z,42.805,6.029,13.2969,4.59974,2470.18,2020-4-01T04:33:06Z
2020-04-01T02:35:31Z,42.805,6.029,13.2968,4.59972,2470.124,2020-4-01T04:36:10Z
2020-04-01T02:38:34Z,42.805,6.029,13.2967,4.59973,2470.133,2020-4-01T04:39:13Z
2020-04-01T02:41:38Z,42.805,6.029,13.2968,4.59973,2470.133,2020-4-01T04:42:16Z
2020-04-01T02:44:41Z,42.805,6.029,13.2968,4.59974,2470.133,2020-4-01T04:45:19Z
2020-04-01T02:47:44Z,42.805,6.029,13.2966,4.59975,2470.11,2020-4-01T04:48:23Z
2020-04-01T02:50:47Z,42.805,6.029,13.2966,4.59973,2470.11,2020-4-01T04:51:26Z
2020-04-01T02:53:51Z,42.805,6.029,13.2966,4.59973,2470.156,2020-4-01T04:54:29Z
2020-04-01T02:56:54Z,42.805,6.029,13.2968,4.59973,2470.124,2020-4-01T04:57:32Z
2020-04-01T02:59:57Z,42.805,6.029,13.2968,4.59973,2470.11,2020-4-01T05:00:36Z
2020-04-01T03:03:00Z,42.805,6.029,13.2969,4.59972,2470.11,2020-4-01T05:03:39Z
2020-04-01T03:06:04Z,42.805,6.029,13.2967,4.59972,2470.133,2020-4-01T05:06:42Z
2020-04-01T03:09:07Z,42.805,6.029,13.2968,4.59973,2470.133,2020-4-01T05:09:45Z
2020-04-01T03:12:10Z,42.805,6.029,13.2971,4.59973,2470.147,2020-4-01T05:12:49Z
2020-04-01T03:15:13Z,42.805,6.029,13.2969,4.59973,2470.133,2020-4-01T05:15:52Z
2020-04-01T03:18:17Z,42.805,6.029,13.2966,4.59975,2470.11,2020-4-01T05:18:55Z
2020-04-01T03:21:20Z,42.805,6.029,13.2971,4.59973,2470.087,2020-4-01T05:21:58Z
2020-04-01T03:24:23Z,42.805,6.029,13.2970,4.59972,2470.11,2020-4-01T05:25:02Z
2020-04-01T03:27:26Z,42.805,6.029,13.2968,4.59971,2470.133,2020-4-01T05:28:05Z
2020-04-01T03:30:30Z,42.805,6.029,13.2971,4.59972,2470.11,2020-4-01T05:31:08Z
2020-04-01T03:33:33Z,42.805,6.029,13.2969,4.59971,2470.124,2020-4-01T05:34:11Z
2020-04-01T03:36:36Z,42.805,6.029,13.2969,4.59972,2470.133,2020-4-01T05:37:15Z
2020-04-01T03:39:39Z,42.805,6.029,13.2968,4.59972,2470.11,2020-4-01T05:40:18Z
2020-04-01T03:42:43Z,42.805,6.029,13.2970,4.59973,2470.1,2020-4-01T05:43:21Z
2020-04-01T03:45:46Z,42.805,6.029,13.2972,4.59972,2470.124,2020-4-01T05:46:24Z
2020-04-01T03:48:49Z,42.805,6.029,13.2968,4.59971,2470.147,2020-4-01T05:49:28Z
2020-04-01T03:51:53Z,42.805,6.029,13.2968,4.59972,2470.11,2020-4-01T05:52:31Z
2020-04-01T03:54:56Z,42.805,6.029,13.2969,4.59973,2470.11,2020-4-01T05:55:34Z
2020-04-01T03:57:59Z,42.805,6.029,13.2968,4.59972,2470.133,2020-4-01T05:58:38Z
2020-04-01T04:01:02Z,42.805,6.029,13.2968,4.59973,2470.063,2020-4-01T06:01:41Z
2020-04-01T04:04:06Z,42.805,6.029,13.2972,4.59973,2470.11,2020-4-01T06:04:44Z
2020-04-01T04:07:09Z,42.805,6.029,13.2968,4.59973,2470.11,2020-4-01T06:07:47Z
2020-04-01T04:10:12Z,42.805,6.029,13.2967,4.59971,2470.087,2020-4-01T06:10:50Z
2020-04-01T04:13:15Z,42.805,6.029,13.2967,4.59973,2470.124,2020-4-01T06:13:54Z
2020-04-01T04:16:18Z,42.805,6.029,13.2970,4.59973,2470.087,2020-4-01T06:16:57Z
2020-04-01T04:19:22Z,42.805,6.029,13.2968,4.59973,2470.087,2020-4-01T06:20:00Z
2020-04-01T04:22:25Z,42.805,6.029,13.2968,4.59973,2470.087,2020-4-01T06:23:03Z
2020-04-01T04:25:28Z,42.805,6.029,13.2967,4.59971,2470.087,2020-4-01T06:26:07Z
2020-04-01T04:28:31Z,42.805,6.029,13.2968,4.59971,2470.063,2020-4-01T06:29:10Z
2020-04-01T04:31:34Z,42.805,6.029,13.2967,4.59973,2470.1,2020-4-01T06:32:13Z
2020-04-01T04:34:38Z,42.805,6.029,13.2968,4.59973,2470.124,2020-4-01T06:35:16Z
2020-04-01T04:37:41Z,42.805,6.029,13.2968,4.59973,2470.1,2020-4-01T06:38:19Z
2020-04-01T04:40:44Z,42.805,6.029,13.2968,4.59971,2470.096,2020-4-01T06:41:23Z
2020-04-01T04:43:47Z,42.805,6.029,13.2969,4.59972,2470.1,2020-4-01T06:44:26Z
2020-04-01T04:46:51Z,42.805,6.029,13.2968,4.59973,2470.124,2020-4-01T06:47:29Z
2020-04-01T04:49:54Z,42.805,6.029,13.2967,4.59973,2470.087,2020-4-01T06:50:32Z
2020-04-01T04:52:57Z,42.805,6.029,13.2969,4.59973,2470.073,2020-4-01T06:53:35Z
2020-04-01T04:56:00Z,42.805,6.029,13.2967,4.59973,2470.087,2020-4-01T06:56:39Z
2020-04-01T04:59:03Z,42.805,6.029,13.2968,4.59975,2470.11,2020-4-01T06:59:42Z
2020-04-01T05:02:07Z,42.805,6.029,13.2969,4.59973,2470.124,2020-4-01T07:02:45Z
2020-04-01T05:05:10Z,42.805,6.029,13.2971,4.59973,2470.087,2020-4-01T07:05:48Z
2020-04-01T05:08:13Z,42.805,6.029,13.2969,4.59973,2470.1,2020-4-01T07:08:52Z
2020-04-01T05:11:16Z,42.805,6.029,13.2970,4.59973,2470.087,2020-4-01T07:11:55Z
2020-04-01T05:14:20Z,42.805,6.029,13.2970,4.59973,2470.1,2020-4-01T07:14:58Z
2020-04-01T05:17:23Z,42.805,6.029,13.2967,4.59972,2470.1,2020-4-01T07:18:01Z
2020-04-01T05:20:26Z,42.805,6.029,13.2971,4.59972,2470.077,2020-4-01T07:21:04Z
2020-04-01T05:23:29Z,42.805,6.029,13.2966,4.59972,2470.087,2020-4-01T07:24:08Z
2020-04-01T05:26:33Z,42.805,6.029,13.2968,4.59971,2470.1,2020-4-01T07:27:11Z
2020-04-01T05:29:36Z,42.805,6.029,13.2966,4.59973,2470.063,2020-4-01T07:30:14Z
2020-04-01T05:32:39Z,42.805,6.029,13.2971,4.59974,2470.087,2020-4-01T07:33:17Z
2020-04-01T05:35:42Z,42.805,6.029,13.2972,4.59974,2470.087,2020-4-01T07:36:21Z
2020-04-01T05:38:45Z,42.805,6.029,13.2966,4.59973,2470.087,2020-4-01T07:39:24Z
2020-04-01T05:41:49Z,42.805,6.029,13.2971,4.59973,2470.11,2020-4-01T07:42:27Z
2020-04-01T05:44:52Z,42.805,6.029,13.2968,4.59973,2470.087,2020-4-01T07:45:31Z
2020-04-01T05:47:55Z,42.805,6.029,13.2971,4.59972,2470.063,2020-4-01T07:48:34Z
2020-04-01T05:50:58Z,42.805,6.029,13.2967,4.59974,2470.124,2020-4-01T07:51:37Z
2020-04-01T05:54:02Z,42.805,6.029,13.2968,4.59973,2470.053,2020-4-01T07:54:40Z
2020-04-01T05:57:05Z,42.805,6.029,13.2968,4.59972,2470.04,2020-4-01T07:57:44Z
2020-04-01T06:00:08Z,42.805,6.029,13.2967,4.59973,2470.087,2020-4-01T08:00:47Z
2020-04-01T06:03:12Z,42.805,6.029,13.2968,4.59974,2470.063,2020-4-01T08:03:50Z
2020-04-01T06:06:15Z,42.805,6.029,13.2968,4.59973,2470.04,2020-4-01T08:06:53Z
2020-04-01T06:09:18Z,42.805,6.029,13.2970,4.59973,2470.087,2020-4-01T08:09:56Z
2020-04-01T06:12:21Z,42.805,6.029,13.2968,4.59973,2470.087,2020-4-01T08:13:00Z
2020-04-01T06:15:24Z,42.805,6.029,13.2970,4.59973,2470.087,2020-4-01T08:16:03Z
2020-04-01T06:18:28Z,42.805,6.029,13.2970,4.59973,2470.087,2020-4-01T08:19:06Z
2020-04-01T06:21:31Z,42.805,6.029,13.2974,4.59974,2470.063,2020-4-01T08:22:09Z
2020-04-01T06:24:34Z,42.805,6.029,13.2968,4.59973,2470.1,2020-4-01T08:25:13Z
2020-04-01T06:27:37Z,42.805,6.029,13.2969,4.59971,2470.087,2020-4-01T08:28:16Z
2020-04-01T06:30:41Z,42.805,6.029,13.2965,4.59971,2470.077,2020-4-01T08:31:19Z
2020-04-01T06:33:44Z,42.805,6.029,13.2967,4.59973,2470.077,2020-4-01T08:34:22Z
2020-04-01T06:36:47Z,42.805,6.029,13.2968,4.59972,2470.04,2020-4-01T08:37:26Z
2020-04-01T06:39:50Z,42.805,6.029,13.2970,4.59973,2470.04,2020-4-01T08:40:29Z
2020-04-01T06:42:54Z,42.805,6.029,13.2970,4.59973,2470.053,2020-4-01T08:43:32Z
2020-04-01T06:45:57Z,42.805,6.029,13.2969,4.59973,2470.087,2020-4-01T08:46:35Z
2020-04-01T06:49:00Z,42.805,6.029,13.2970,4.59973,2470.077,2020-4-01T08:49:39Z
2020-04-01T06:52:03Z,42.805,6.029,13.2969,4.59975,2470.053,2020-4-01T08:52:42Z
2020-04-01T06:55:07Z,42.805,6.029,13.2968,4.59973,2470.063,2020-4-01T08:55:45Z
2020-04-01T06:58:10Z,42.805,6.029,13.2967,4.59975,2470.087,2020-4-01T08:58:48Z
2020-04-01T07:01:13Z,42.805,6.029,13.2967,4.59972,2470.04,2020-4-01T09:01:52Z
2020-04-01T07:04:16Z,42.805,6.029,13.2971,4.59973,2470.077,2020-4-01T09:04:55Z
2020-04-01T07:07:20Z,42.805,6.029,13.2972,4.59975,2470.1,2020-4-01T09:07:58Z
2020-04-01T07:10:23Z,42.805,6.029,13.2969,4.59975,2470.063,2020-4-01T09:11:01Z
2020-04-01T07:13:26Z,42.805,6.029,13.2971,4.59973,2470.077,2020-4-01T09:14:04Z
2020-04-01T07:16:29Z,42.805,6.029,13.2970,4.59973,2470.04,2020-4-01T09:17:08Z
2020-04-01T07:19:32Z,42.805,6.029,13.2967,4.59973,2470.03,2020-4-01T09:20:11Z
2020-04-01T07:22:36Z,42.805,6.029,13.2970,4.59975,2470.053,2020-4-01T09:23:14Z
2020-04-01T07:25:39Z,42.805,6.029,13.2971,4.59976,2470.063,2020-4-01T09:26:17Z
2020-04-01T07:28:42Z,42.805,6.029,13.2968,4.59973,2470.063,2020-4-01T09:29:21Z
2020-04-01T07:31:45Z,42.805,6.029,13.2968,4.59973,2470.063,2020-4-01T09:32:24Z
2020-04-01T07:34:49Z,42.805,6.029,13.2971,4.59974,2470.04,2020-4-01T09:35:27Z
2020-04-01T07:37:52Z,42.805,6.029,13.2967,4.59976,2470.017,2020-4-01T09:38:30Z
2020-04-01T07:40:55Z,42.805,6.029,13.2968,4.59975,2470.03,2020-4-01T09:41:34Z
2020-04-01T07:43:58Z,42.805,6.029,13.2968,4.59976,2470.077,2020-4-01T09:44:37Z
2020-04-01T07:47:02Z,42.805,6.029,13.2968,4.59974,2470.053,2020-4-01T09:47:40Z
2020-04-01T07:50:05Z,42.805,6.029,13.2969,4.59974,2470.053,2020-4-01T09:50:43Z
2020-04-01T07:53:08Z,42.805,6.029,13.2968,4.59974,2470.1,2020-4-01T09:53:47Z
2020-04-01T07:56:11Z,42.805,6.029,13.2968,4.59973,2470.04,2020-4-01T09:56:50Z
2020-04-01T07:59:15Z,42.805,6.029,13.2974,4.59973,2470.1,2020-4-01T09:59:53Z
2020-04-01T08:02:18Z,42.805,6.029,13.2971,4.59973,2470.04,2020-4-01T10:02:56Z
2020-04-01T08:05:21Z,42.805,6.029,13.2970,4.59973,2470.063,2020-4-01T10:06:00Z
2020-04-01T08:08:24Z,42.805,6.029,13.2968,4.59973,2470.04,2020-4-01T10:09:03Z
2020-04-01T08:11:28Z,42.805,6.029,13.2971,4.59975,2470.1,2020-4-01T10:12:06Z
2020-04-01T08:14:31Z,42.805,6.029,13.2971,4.59973,2470.063,2020-4-01T10:15:09Z
2020-04-01T08:17:34Z,42.805,6.029,13.2968,4.59972,2470.063,2020-4-01T10:18:12Z
2020-04-01T08:20:37Z,42.805,6.029,13.2967,4.59974,2470.063,2020-4-01T10:21:16Z
2020-04-01T08:23:41Z,42.805,6.029,13.2965,4.59973,2470.053,2020-4-01T10:24:19Z
2020-04-01T08:26:44Z,42.805,6.029,13.2971,4.59973,2470.04,2020-4-01T10:27:22Z
2020-04-01T08:29:47Z,42.805,6.029,13.2971,4.59974,2470.077,2020-4-01T10:30:26Z
2020-04-01T08:32:50Z,42.805,6.029,13.2969,4.59974,2470.1,2020-4-01T10:33:29Z
2020-04-01T08:35:53Z,42.805,6.029,13.2974,4.59973,2470.063,2020-4-01T10:36:32Z
2020-04-01T08:38:57Z,42.805,6.029,13.2968,4.59974,2470.04,2020-4-01T10:39:35Z
2020-04-01T08:42:00Z,42.805,6.029,13.2966,4.59973,2470.087,2020-4-01T10:42:38Z
2020-04-01T08:45:03Z,42.805,6.029,13.2971,4.59974,2470.087,2020-4-01T10:45:42Z
2020-04-01T08:48:06Z,42.805,6.029,13.2971,4.59976,2470.1,2020-4-01T10:48:45Z
2020-04-01T08:51:10Z,42.805,6.029,13.2966,4.59973,2470.087,2020-4-01T10:51:48Z
2020-04-01T08:54:13Z,42.805,6.029,13.2969,4.59973,2470.1,2020-4-01T10:54:51Z
2020-04-01T08:57:16Z,42.805,6.029,13.2968,4.59973,2470.063,2020-4-01T10:57:55Z
2020-04-01T09:00:19Z,42.805,6.029,13.2968,4.59973,2470.087,2020-4-01T11:00:58Z
2020-04-01T09:03:22Z,42.805,6.029,13.2968,4.59973,2470.077,2020-4-01T11:04:01Z
2020-04-01T09:06:26Z,42.805,6.029,13.2968,4.59973,2470.087,2020-4-01T11:07:04Z
2020-04-01T09:09:29Z,42.805,6.029,13.2972,4.59973,2470.1,2020-4-01T11:10:08Z
2020-04-01T09:12:32Z,42.805,6.029,13.2964,4.59974,2470.087,2020-4-01T11:13:11Z
2020-04-01T09:15:35Z,42.805,6.029,13.2969,4.59975,2470.077,2020-4-01T11:16:14Z
2020-04-01T09:18:39Z,42.805,6.029,13.2972,4.59973,2470.087,2020-4-01T11:19:17Z
2020-04-01T09:21:42Z,42.805,6.029,13.2968,4.59975,2470.063,2020-4-01T11:22:20Z
2020-04-01T09:24:45Z,42.805,6.029,13.2969,4.59973,2470.063,2020-4-01T11:25:24Z
2020-04-01T09:27:48Z,42.805,6.029,13.2970,4.59973,2470.087,2020-4-01T11:28:27Z
2020-04-01T09:30:52Z,42.805,6.029,13.2969,4.59974,2470.077,2020-4-01T11:31:30Z
2020-04-01T09:33:55Z,42.805,6.029,13.2970,4.59973,2470.087,2020-4-01T11:34:33Z
2020-04-01T09:36:58Z,42.805,6.029,13.2968,4.59974,2470.1,2020-4-01T11:37:37Z
2020-04-01T09:40:01Z,42.805,6.029,13.2973,4.59974,2470.087,2020-4-01T11:40:40Z
2020-04-01T09:43:05Z,42.805,6.029,13.2969,4.59975,2470.063,2020-4-01T11:43:43Z
2020-04-01T09:46:08Z,42.805,6.029,13.2971,4.59977,2470.124,2020-4-01T11:46:46Z
2020-04-01T09:49:11Z,42.805,6.029,13.2967,4.59973,2470.077,2020-4-01T11:49:50Z
2020-04-01T09:52:15Z,42.805,6.029,13.2967,4.59972,2470.053,2020-4-01T11:52:53Z
2020-04-01T09:55:18Z,42.805,6.029,13.2969,4.59973,2470.087,2020-4-01T11:55:56Z
2020-04-01T09:58:21Z,42.805,6.029,13.2968,4.59976,2470.087,2020-4-01T11:59:00Z
2020-04-01T10:01:24Z,42.805,6.029,13.2971,4.59973,2470.077,2020-4-01T12:02:03Z
2020-04-01T10:04:27Z,42.805,6.029,13.2969,4.59974,2470.087,2020-4-01T12:05:06Z
2020-04-01T10:07:31Z,42.805,6.029,13.2969,4.59973,2470.077,2020-4-01T12:08:09Z
2020-04-01T10:10:34Z,42.805,6.029,13.2968,4.59973,2470.11,2020-4-01T12:11:12Z
2020-04-01T10:13:37Z,42.805,6.029,13.2969,4.59974,2470.077,2020-4-01T12:14:16Z
2020-04-01T10:16:40Z,42.805,6.029,13.2968,4.59974,2470.124,2020-4-01T12:17:19Z
2020-04-01T10:19:44Z,42.805,6.029,13.2971,4.59976,2470.1,2020-4-01T12:20:22Z
2020-04-01T10:22:47Z,42.805,6.029,13.2969,4.59974,2470.087,2020-4-01T12:23:26Z
2020-04-01T10:25:50Z,42.805,6.029,13.2971,4.59973,2470.087,2020-4-01T12:26:29Z
2020-04-01T10:28:54Z,42.805,6.029,13.2971,4.59974,2470.087,2020-4-01T12:29:32Z
2020-04-01T10:31:57Z,42.805,6.029,13.2966,4.59976,2470.087,2020-4-01T12:32:35Z
2020-04-01T10:35:00Z,42.805,6.029,13.2968,4.59976,2470.147,2020-4-01T12:35:38Z
2020-04-01T10:38:03Z,42.805,6.029,13.2971,4.59975,2470.087,2020-4-01T12:38:42Z
2020-04-01T10:41:06Z,42.805,6.029,13.2968,4.59973,2470.087,2020-4-01T12:41:45Z
2020-04-01T10:44:10Z,42.805,6.029,13.2970,4.59975,2470.11,2020-4-01T12:44:48Z
2020-04-01T10:47:13Z,42.805,6.029,13.2969,4.59975,2470.063,2020-4-01T12:47:51Z
2020-04-01T10:50:16Z,42.805,6.029,13.2968,4.59973,2470.077,2020-4-01T12:50:55Z
2020-04-01T10:53:19Z,42.805,6.029,13.2968,4.59973,2470.11,2020-4-01T12:53:58Z
2020-04-01T10:56:23Z,42.805,6.029,13.2971,4.59973,2470.087,2020-4-01T12:57:01Z
2020-04-01T10:59:26Z,42.805,6.029,13.2971,4.59973,2470.096,2020-4-01T13:00:04Z
2020-04-01T11:02:29Z,42.805,6.029,13.2971,4.59973,2470.11,2020-4-01T13:03:08Z
2020-04-01T11:05:32Z,42.805,6.029,13.2971,4.59975,2470.124,2020-4-01T13:06:11Z
2020-04-01T11:08:36Z,42.805,6.029,13.2971,4.59976,2470.1,2020-4-01T13:09:14Z
2020-04-01T11:11:39Z,42.805,6.029,13.2972,4.59976,2470.063,2020-4-01T13:12:17Z
2020-04-01T11:14:42Z,42.805,6.029,13.2974,4.59974,2470.087,2020-4-01T13:15:21Z
2020-04-01T11:17:45Z,42.805,6.029,13.2971,4.59974,2470.087,2020-4-01T13:18:24Z
2020-04-01T11:20:49Z,42.805,6.029,13.2968,4.59972,2470.11,2020-4-01T13:21:27Z
2020-04-01T11:23:52Z,42.805,6.029,13.2967,4.59973,2470.087,2020-4-01T13:24:30Z
2020-04-01T11:26:55Z,42.805,6.029,13.2970,4.59973,2470.11,2020-4-01T13:27:34Z
2020-04-01T11:29:58Z,42.805,6.029,13.2967,4.59974,2470.1,2020-4-01T13:30:37Z
2020-04-01T11:33:02Z,42.805,6.029,13.2968,4.59974,2470.1,2020-4-01T13:33:40Z
2020-04-01T11:36:05Z,42.805,6.029,13.2968,4.59976,2470.1,2020-4-01T13:36:43Z
2020-04-01T11:39:08Z,42.805,6.029,13.2967,4.59978,2470.087,2020-4-01T13:39:46Z
2020-04-01T11:42:11Z,42.805,6.029,13.2967,4.59975,2470.11,2020-4-01T13:42:50Z
2020-04-01T11:45:15Z,42.805,6.029,13.2967,4.59974,2470.1,2020-4-01T13:45:53Z
2020-04-01T11:48:18Z,42.805,6.029,13.2968,4.59973,2470.1,2020-4-01T13:48:56Z
2020-04-01T11:51:21Z,42.805,6.029,13.2967,4.59973,2470.1,2020-4-01T13:52:00Z
2020-04-01T11:54:25Z,42.805,6.029,13.2966,4.59973,2470.063,2020-4-01T13:55:03Z
2020-04-01T11:57:28Z,42.805,6.029,13.2969,4.59976,2470.133,2020-4-01T13:58:06Z
2020-04-01T12:00:31Z,42.805,6.029,13.2968,4.59973,2470.11,2020-4-01T14:01:10Z
2020-04-01T12:03:34Z,42.805,6.029,13.2969,4.59974,2470.11,2020-4-01T14:04:13Z
2020-04-01T12:06:38Z,42.805,6.029,13.2975,4.59974,2470.1,2020-4-01T14:07:16Z
2020-04-01T12:09:41Z,42.805,6.029,13.2967,4.59975,2470.087,2020-4-01T14:10:19Z
2020-04-01T12:12:44Z,42.805,6.029,13.2967,4.59976,2470.053,2020-4-01T14:13:23Z
2020-04-01T12:15:47Z,42.805,6.029,13.2967,4.59973,2470.087,2020-4-01T14:16:26Z
2020-04-01T12:18:51Z,42.805,6.029,13.2969,4.59975,2470.087,2020-4-01T14:19:29Z
2020-04-01T12:21:54Z,42.805,6.029,13.2970,4.59978,2470.11,2020-4-01T14:22:32Z
2020-04-01T12:24:57Z,42.805,6.029,13.2973,4.59976,2470.049,2020-4-01T14:25:36Z
2020-04-01T12:28:00Z,42.805,6.029,13.2971,4.59974,2470.087,2020-4-01T14:28:39Z
2020-04-01T12:31:04Z,42.805,6.029,13.2971,4.59975,2470.1,2020-4-01T14:31:42Z
2020-04-01T12:34:07Z,42.805,6.029,13.2972,4.59975,2470.087,2020-4-01T14:34:45Z
2020-04-01T12:37:10Z,42.805,6.029,13.2970,4.59974,2470.077,2020-4-01T14:37:49Z
2020-04-01T12:40:13Z,42.805,6.029,13.2968,4.59978,2470.087,2020-4-01T14:40:52Z
2020-04-01T12:43:17Z,42.805,6.029,13.2969,4.59974,2470.11,2020-4-01T14:43:55Z
2020-04-01T12:46:20Z,42.805,6.029,13.2969,4.59976,2470.077,2020-4-01T14:46:58Z
2020-04-01T12:49:23Z,42.805,6.029,13.2972,4.59977,2470.1,2020-4-01T14:50:01Z
2020-04-01T12:52:26Z,42.805,6.029,13.2969,4.59975,2470.087,2020-4-01T14:53:05Z
2020-04-01T12:55:29Z,42.805,6.029,13.2972,4.59978,2470.1,2020-4-01T14:56:08Z
2020-04-01T12:58:33Z,42.805,6.029,13.2967,4.59976,2470.077,2020-4-01T14:59:11Z
2020-04-01T13:01:36Z,42.805,6.029,13.2969,4.59974,2470.063,2020-4-01T15:02:14Z
2020-04-01T13:04:39Z,42.805,6.029,13.2969,4.59975,2470.1,2020-4-01T15:05:18Z
2020-04-01T13:07:42Z,42.805,6.029,13.2969,4.59974,2470.11,2020-4-01T15:08:21Z
2020-04-01T13:10:46Z,42.805,6.029,13.2968,4.59976,2470.087,2020-4-01T15:11:24Z
2020-04-01T13:13:49Z,42.805,6.029,13.2968,4.59976,2470.077,2020-4-01T15:14:28Z
2020-04-01T13:16:52Z,42.805,6.029,13.2967,4.59974,2470.063,2020-4-01T15:17:31Z
2020-04-01T13:19:56Z,42.805,6.029,13.2968,4.59975,2470.1,2020-4-01T15:20:34Z
2020-04-01T13:22:59Z,42.805,6.029,13.2969,4.59974,2470.077,2020-4-01T15:23:37Z
2020-04-01T13:26:02Z,42.805,6.029,13.2967,4.59973,2470.087,2020-4-01T15:26:41Z
2020-04-01T13:29:05Z,42.805,6.029,13.2968,4.59973,2470.063,2020-4-01T15:29:44Z
2020-04-01T13:32:09Z,42.805,6.029,13.2967,4.59973,2470.1,2020-4-01T15:32:47Z
2020-04-01T13:35:12Z,42.805,6.029,13.2972,4.59973,2470.077,2020-4-01T15:35:50Z
2020-04-01T13:38:15Z,42.805,6.029,13.2969,4.59973,2470.087,2020-4-01T15:38:53Z
2020-04-01T13:41:18Z,42.805,6.029,13.2968,4.59975,2470.1,2020-4-01T15:41:57Z
2020-04-01T13:44:21Z,42.805,6.029,13.2969,4.59974,2470.087,2020-4-01T15:45:00Z
2020-04-01T13:47:25Z,42.805,6.029,13.2971,4.59973,2470.1,2020-4-01T15:48:03Z
2020-04-01T13:50:28Z,42.805,6.029,13.2967,4.59973,2470.11,2020-4-01T15:51:06Z
2020-04-01T13:53:31Z,42.805,6.029,13.2967,4.59973,2470.04,2020-4-01T15:54:10Z
2020-04-01T13:56:34Z,42.805,6.029,13.2970,4.59973,2470.11,2020-4-01T15:57:13Z
2020-04-01T13:59:38Z,42.805,6.029,13.2968,4.59973,2470.077,2020-4-01T16:00:16Z
2020-04-01T14:02:41Z,42.805,6.029,13.2971,4.59973,2470.077,2020-4-01T16:03:19Z
2020-04-01T14:05:44Z,42.805,6.029,13.2969,4.59972,2470.1,2020-4-01T16:06:22Z
2020-04-01T14:08:47Z,42.805,6.029,13.2964,4.59973,2470.077,2020-4-01T16:09:26Z
2020-04-01T14:11:50Z,42.805,6.029,13.2969,4.59974,2470.063,2020-4-01T16:12:29Z
2020-04-01T14:14:54Z,42.805,6.029,13.2968,4.59973,2470.04,2020-4-01T16:15:32Z
2020-04-01T14:17:57Z,42.805,6.029,13.2967,4.59974,2470.077,2020-4-01T16:18:35Z
2020-04-01T14:21:00Z,42.805,6.029,13.2968,4.59974,2470.053,2020-4-01T16:21:38Z
2020-04-01T14:24:03Z,42.805,6.029,13.2968,4.59975,2470.087,2020-4-01T16:24:42Z
2020-04-01T14:27:06Z,42.805,6.029,13.2969,4.59973,2470.087,2020-4-01T16:27:45Z
2020-04-01T14:30:10Z,42.805,6.029,13.2968,4.59973,2470.063,2020-4-01T16:30:48Z
2020-04-01T14:33:13Z,42.805,6.029,13.2968,4.59973,2470.077,2020-4-01T16:33:51Z
2020-04-01T14:36:16Z,42.805,6.029,13.2970,4.59972,2470.063,2020-4-01T16:36:55Z
2020-04-01T14:39:19Z,42.805,6.029,13.2971,4.59974,2470.063,2020-4-01T16:39:58Z
2020-04-01T14:42:22Z,42.805,6.029,13.2967,4.59973,2470.077,2020-4-01T16:43:01Z
2020-04-01T14:45:26Z,42.805,6.029,13.2968,4.59973,2470.063,2020-4-01T16:46:04Z
2020-04-01T14:48:29Z,42.805,6.029,13.2968,4.59973,2470.063,2020-4-01T16:49:07Z
2020-04-01T14:51:32Z,42.805,6.029,13.2969,4.59972,2470.049,2020-4-01T16:52:11Z
2020-04-01T14:54:35Z,42.805,6.029,13.2968,4.59976,2470.03,2020-4-01T16:55:14Z
2020-04-01T14:57:38Z,42.805,6.029,13.2967,4.59972,2470.087,2020-4-01T16:58:17Z
2020-04-01T15:00:42Z,42.805,6.029,13.2968,4.59972,2470.04,2020-4-01T17:01:20Z
2020-04-01T15:03:45Z,42.805,6.029,13.2965,4.59972,2470.04,2020-4-01T17:04:23Z
2020-04-01T15:06:48Z,42.805,6.029,13.2967,4.59972,2470.063,2020-4-01T17:07:26Z
2020-04-01T15:09:51Z,42.805,6.029,13.2969,4.59971,2470.087,2020-4-01T17:10:30Z
2020-04-01T15:12:54Z,42.805,6.029,13.2967,4.59970,2470.04,2020-4-01T17:13:33Z
2020-04-01T15:15:58Z,42.805,6.029,13.2968,4.59971,2470.077,2020-4-01T17:16:36Z